Regional Weather Roundup
Issued by NWS

Home | Current Version | Previous Version | Graphics & Text | Print | Product List | Glossary On
Versions: 1 2 3 4 5 6 7 8 9 10 11 12 13 14 15 16 17 18 19 20 21 22 23 24 25 26 27
000
ASUS45 KSLC 191010
RWRUT

UTAH REGIONAL WEATHER ROUNDUP
NATIONAL WEATHER SERVICE SALT LAKE CITY UT
400 AM MDT TUE SEP 19 2017

UTZ001>011-023>025-191100-

NORTHERN UTAH

CITY           SKY/WX    TMP DP  RH WIND       PRES   REMARKS
BRIGHAM CITY   CLOUDY    55  49  80 CALM      29.78S
HILL AFB       CLOUDY    54  50  87 NE5       29.77F
LOGAN          LGT RAIN  54  50  86 CALM      29.77F
OGDEN          LGT RAIN  55  49  80 NE6       29.77S
SALT LAKE CITY LGT RAIN  60  54  80 SE8       29.73F
TOOELE VALLEY  CLOUDY    59  50  72 S7        29.75R
WENDOVER       MOCLDY    63  35  35 N8        29.76R
HEBER CITY     DRIZZLE   61  36  39 SW22G30   29.75F
WEST JORDAN    CLOUDY    57  54  91 CALM      29.76F

$$

UTZ011>015-024>027-191100-

CENTRAL/NORTHEAST UTAH

CITY           SKY/WX    TMP DP  RH WIND       PRES   REMARKS
PROVO AIRPORT  CLOUDY    69  41  36 SW16      29.75S
MOAB/CANYONLAN MOCLDY    67  29  24 S13       29.79F
DELTA          CLOUDY    64  34  32 S26G32    29.79S
PRICE          MOCLDY    54  36  50 CALM      29.84F
ROOSEVELT      CLOUDY    50  39  66 W5        29.78S
VERNAL         CLOUDY    63  32  31 SW12      29.75S

$$

UTZ013>016-019>022-027-191100-

SOUTHERN UTAH

CITY           SKY/WX    TMP DP  RH WIND       PRES   REMARKS
BRYCE CANYON   PTCLDY    49  34  56 S10       30.05F
CEDAR CITY     PTCLDY    61  34  36 S16G22    29.90F
MILFORD        CLOUDY    58  38  47 S12       29.86F
ST GEORGE      CLOUDY    70  38  31 SE12      29.81F
HANKSVILLE     MOCLDY    70  30  23 SW20G28   29.84R
BLANDING         N/A     54  20  26 CALM      30.06F

$$

REGIONAL REPORTS     COLORADO/ARIZONA

CITY           SKY/WX    TMP DP  RH WIND       PRES   REMARKS
CRAIG, CO      CLOUDY    39  31  72 CALM      29.84F
GRAND JUNCTION CLOUDY    61  29  29 SE10      29.83S
RIFLE, CO      CLOUDY    67  22  18 S12       29.85S
MONTROSE, CO   CLEAR     63  21  20 S10       29.95F
CORTEZ, CO     CLOUDY    43  29  57 NE5       30.03F
PAGE, AZ       CLEAR     65  25  22 SW5       29.90S
GRAND CANYON   CLEAR     36  25  64 CALM      30.09S
KINGMAN, AZ    CLEAR     67  43  41 S12       29.90S
FLAGSTAFF, AZ  CLEAR     44  26  49 W3        30.12S

$$

REGIONAL REPORTS    NEVADA/IDAHO/WYOMING

CITY           SKY/WX    TMP DP  RH WIND       PRES   REMARKS
LAS VEGAS, NV  MOCLDY    78  36  21 S10G16    29.74F
ELY, NY        PTCLDY    60  25  26 SW14G22   29.86F
ELKO, NV       MOCLDY    52  34  50 N7        29.86R
POCATELLO, ID  LGT RAIN  43  42  97 SW24      29.86R
BURLEY, ID     CLOUDY    42  40  92 S16       29.82F
FORT BRIDGER,  CLOUDY    47  45  94 W12G17    29.87R
EVANSTON, WY   LGT RAIN  45  44  97 SW13      29.86R
ROCK SPRINGS,  CLOUDY    49  38  65 W13       29.82R
KEMMERER, WY   LGT RAIN  43  41  93 W13G20    29.84R

$$




USA.gov is the U.S. government's official web portal to all federal, state and local government web resources and services.